Regional Weather Roundup
Issued by NWS

Home | Current Version | Previous Version | Graphics & Text | Print | Product List | Glossary On
Versions: 1 2 3 4 5 6 7 8 9 10 11 12 13 14 15 16 17 18 19 20 21 22 23 24 25 26 27 28 29 30 31 32 33 34 35 36 37 38 39 40 41 42 43 44 45 46 47 48 49 50
000
ASUS43 KLMK 221110
RWRKY
KENTUCKY REGIONAL WEATHER ROUNDUP
NATIONAL WEATHER SERVICE LOUISVILLE KY
700 AM EDT SAT JUL 22 2017

NOTE "FAIR" INDICATES FEW OR NO CLOUDS BELOW 12,000 FEET
WITH NO SIGNIFICANT WEATHER AND/OR OBSTRUCTIONS TO VISIBILITY.

KYZ001>023-026-027-061>063-070>075-221200-
WESTERN AND SOUTH CENTRAL KENTUCKY

CITY           SKY/WX    TMP DP  RH WIND       PRES   REMARKS
PADUCAH        CLEAR     79  73  82 CALM      29.92R
HENDERSON      CLEAR     77  74  90 SW5       29.90F
OWENSBORO      CLEAR     76  75  97 S6        29.92S FOG
HOPKINSVILLE   CLEAR     77  75  93 S3        29.95S
BOWLING GREEN  CLEAR     79  76  90 SW5       29.96R
GLASGOW        CLEAR     75  75 100 CALM      29.96S FOG
$$

KYZ024-025-028>034-038-045-046-053-221200-
NORTH CENTRAL KENTUCKY

CITY           SKY/WX    TMP DP  RH WIND       PRES   REMARKS
LOUISVILLE/SDF MOCLDY    82  75  79 SW7       29.91S HAZE
LOUISVILLE/LOU CLEAR     81  77  88 SW6       29.92S
FORT KNOX      CLEAR     77  74  90 SW5       29.93S
$$

KYZ035>037-039>044-047>052-055>060-089>105-221200-
NORTHEAST KENTUCKY

CITY           SKY/WX    TMP DP  RH WIND       PRES   REMARKS
LEXINGTON      CLOUDY    77  71  82 S6        29.96R HAZE
COVINGTON      CLOUDY    77  76  96 SW5       29.91R
FRANKFORT      CLOUDY    77  72  84 SW5       29.93S HAZE
$$

KYZ054-064>069-076>088-106>120-221200-
SOUTHEAST KENTUCKY

CITY           SKY/WX    TMP DP  RH WIND       PRES   REMARKS
JACKSON        CLEAR     75  71  87 VRB3      29.99S
LONDON         CLEAR     72  70  93 CALM      29.99F FOG
SOMERSET       CLOUDY    70  70 100 CALM      29.99S FOG
MIDDLESBORO    MOCLDY    70  70 100 CALM      30.02F FOG
MONTICELLO     SUNNY     72  71  97 W10       30.00S FOG
$$




USA.gov is the U.S. government's official web portal to all federal, state and local government web resources and services.